| time (UTC) | temp F | wind direction | speed MPH | gust MPH | rain 1hr in | rain 24hr in | rain mn in | humidity % | barometer mb |
| 20260902204534 | 58 | 90 | 1.0 | 4.0 | 0.03 | 0.04 | 0.04 | 87 | 1009.7 |
| 20260902203144 | 59 | 46 | 1.0 | 4.0 | 0.03 | 0.04 | 0.01 | 85 | 1009.8 |
| 20260902201534 | 59 | 14 | 2.0 | 5.0 | 0.01 | 0.01 | 0.01 | 84 | 1009.8 |
| 20260902200032 | 59 | 3 | 2.0 | 6.0 | 0.01 | 0.01 | 0.01 | 83 | 1009.7 |
| 20260902193037 | 60 | 323 | 0.0 | 3.0 | 0.01 | 0.01 | 0.00 | 77 | 1009.7 |
| 20260902191543 | 61 | 300 | 2.0 | 5.0 | 0.00 | 0.00 | 0.00 | 73 | 1009.6 |
| 20260902183037 | 61 | 288 | 2.0 | 5.0 | 0.00 | 0.00 | 0.00 | 70 | 1009.6 |
| 20260902180035 | 60 | 296 | 2.0 | 5.0 | 0.00 | 0.00 | 0.00 | 72 | 1009.6 |
| 20260902174609 | 60 | 296 | 4.0 | 7.0 | 0.00 | 0.00 | 0.00 | 72 | 1009.6 |
| 20260902173037 | 61 | 302 | 4.0 | 7.0 | 0.00 | 0.00 | 0.00 | 70 | 1009.6 |
| 20260902171535 | 62 | 320 | 4.0 | 8.0 | 0.00 | 0.00 | 0.00 | 68 | 1009.8 |
| 20260902170036 | 63 | 336 | 4.0 | 8.0 | 0.00 | 0.00 | 0.00 | 67 | 1009.8 |
| 20260902164534 | 62 | 333 | 3.0 | 6.0 | 0.00 | 0.00 | 0.00 | 69 | 1010.0 |
| 20260902163035 | 60 | 23 | 1.0 | 4.0 | 0.00 | 0.00 | 0.00 | 73 | 1010.3 |
| 20260902160035 | 59 | 41 | 2.0 | 5.0 | 0.00 | 0.00 | 0.00 | 75 | 1010.7 |
| 20260902154534 | 59 | 28 | 3.0 | 6.0 | 0.00 | 0.00 | 0.00 | 76 | 1010.7 |
| 20260902153035 | 58 | 34 | 3.0 | 7.0 | 0.00 | 0.00 | 0.00 | 78 | 1010.8 |
| 20260902151533 | 56 | 41 | 0.0 | 3.0 | 0.00 | 0.00 | 0.00 | 81 | 1010.9 |
| 20260902144643 | 55 | 113 | 0.0 | 2.0 | 0.00 | 0.00 | 0.00 | 83 | 1011.2 |
| 20260902141610 | 53 | 162 | 1.0 | 3.0 | 0.00 | 0.00 | 0.00 | 86 | 1011.5 |
| 20260902140036 | 51 | 95 | 1.0 | 5.0 | 0.00 | 0.00 | 0.00 | 89 | 1011.4 |
| 20260902133038 | 50 | 106 | 0.0 | 2.0 | 0.00 | 0.00 | 0.00 | 90 | 1011.5 |
| 20260902131538 | 50 | 139 | 1.0 | 3.0 | 0.00 | 0.00 | 0.00 | 89 | 1011.6 |
| 20260902130037 | 50 | 86 | 0.0 | 4.0 | 0.00 | 0.00 | 0.00 | 89 | 1011.5 |
| 20260902124538 | 50 | 81 | 1.0 | 4.0 | 0.00 | 0.00 | 0.00 | 89 | 1011.6 |
| 20260902123038 | 51 | 99 | 1.0 | 5.0 | 0.00 | 0.00 | 0.00 | 90 | 1011.6 |
| 20260902121536 | 51 | 144 | 3.0 | 4.0 | 0.00 | 0.00 | 0.00 | 89 | 1011.6 |
| 20260902120030 | 51 | 159 | 1.0 | 4.0 | 0.00 | 0.00 | 0.00 | 88 | 1011.7 |
| 20260902114609 | 52 | 191 | 2.0 | 6.0 | 0.00 | 0.00 | 0.00 | 87 | 1011.8 |
| 20260902113035 | 52 | 100 | 1.0 | 4.0 | 0.00 | 0.00 | 0.00 | 87 | 1011.8 |
| 20260902111536 | 53 | 46 | 3.0 | 6.0 | 0.00 | 0.00 | 0.00 | 84 | 1011.8 |
| 20260902104535 | 54 | 35 | 1.0 | 4.0 | 0.00 | 0.00 | 0.00 | 81 | 1011.9 |
| 20260902103035 | 56 | 36 | 1.0 | 4.0 | 0.00 | 0.00 | 0.00 | 76 | 1012.1 |
| 20260902101535 | 56 | 275 | 0.0 | 6.0 | 0.00 | 0.00 | 0.00 | 75 | 1012.2 |
| 20260902100033 | 55 | 302 | 2.0 | 6.0 | 0.00 | 0.00 | 0.00 | 78 | 1012.2 |
| 20260902094535 | 56 | 334 | 2.0 | 6.0 | 0.00 | 0.00 | 0.00 | 78 | 1012.2 |
| 20260902093141 | 58 | 18 | 2.0 | 6.0 | 0.00 | 0.00 | 0.00 | 71 | 1012.4 |
| 20260902091534 | 58 | 260 | 4.0 | 12.0 | 0.00 | 0.00 | 0.00 | 70 | 1012.5 |
| 20260902084535 | 58 | 291 | 3.0 | 10.0 | 0.00 | 0.00 | 0.00 | 69 | 1012.4 |
| 20260902083038 | 56 | 273 | 2.0 | 13.0 | 0.00 | 0.00 | 0.00 | 77 | 1012.5 |
| 20260902080033 | 57 | 310 | 2.0 | 5.0 | 0.00 | 0.00 | 0.00 | 75 | 1012.5 |
| 20260902074534 | 59 | 265 | 3.0 | 9.0 | 0.00 | 0.00 | 0.00 | 68 | 1012.6 |
| 20260902073035 | 59 | 276 | 5.0 | 14.0 | 0.00 | 0.00 | 0.00 | 67 | 1012.6 |
| 20260902071611 | 60 | 271 | 5.0 | 14.0 | 0.00 | 0.00 | 0.00 | 66 | 1012.8 |
| 20260902070033 | 60 | 266 | 6.0 | 12.0 | 0.00 | 0.00 | 0.00 | 66 | 1013.1 |
| 20260902064536 | 61 | 269 | 5.0 | 11.0 | 0.00 | 0.00 | 0.00 | 66 | 1013.2 |
| 20260902063030 | 60 | 256 | 6.0 | 11.0 | 0.00 | 0.00 | 0.00 | 68 | 1013.4 |
| 20260902061536 | 60 | 287 | 3.0 | 10.0 | 0.00 | 0.00 | 0.00 | 68 | 1013.4 |
| 20260902060036 | 61 | 285 | 3.0 | 9.0 | 0.00 | 0.00 | 0.00 | 64 | 1013.4 |
| 20260902054534 | 61 | 267 | 5.0 | 12.0 | 0.00 | 0.00 | 0.00 | 63 | 1013.4 |
| 20260902051530 | 62 | 253 | 6.0 | 14.0 | 0.00 | 0.00 | 0.00 | 61 | 1013.2 |
| 20260902050109 | 62 | 244 | 7.0 | 18.0 | 0.00 | 0.00 | 0.00 | 62 | 1013.0 |
| 20260902044530 | 62 | 252 | 5.0 | 15.0 | 0.00 | 0.00 | 0.00 | 63 | 1012.9 |
| 20260902043109 | 62 | 245 | 5.0 | 13.0 | 0.00 | 0.00 | 0.00 | 62 | 1012.8 |
| 20260902041536 | 62 | 248 | 5.0 | 12.0 | 0.00 | 0.00 | 0.00 | 61 | 1012.6 |
| 20260902040035 | 62 | 264 | 6.0 | 14.0 | 0.00 | 0.00 | 0.00 | 61 | 1012.5 |
| 20260902034535 | 62 | 266 | 4.0 | 10.0 | 0.00 | 0.00 | 0.00 | 61 | 1012.2 |
| 20260902033034 | 62 | 277 | 5.0 | 18.0 | 0.00 | 0.00 | 0.00 | 61 | 1012.2 |
| 20260902030110 | 62 | 249 | 7.0 | 17.0 | 0.00 | 0.00 | 0.00 | 60 | 1012.4 |
| 20260902024535 | 62 | 248 | 6.0 | 18.0 | 0.00 | 0.00 | 0.00 | 60 | 1012.4 |
| 20260902023142 | 63 | 253 | 5.0 | 14.0 | 0.00 | 0.00 | 0.00 | 59 | 1012.1 |
| 20260902021537 | 63 | 258 | 5.0 | 14.0 | 0.00 | 0.00 | 0.00 | 58 | 1012.1 |
| 20260902020035 | 64 | 259 | 6.0 | 12.0 | 0.00 | 0.00 | 0.00 | 58 | 1011.9 |
| 20260902014534 | 65 | 270 | 7.0 | 18.0 | 0.00 | 0.00 | 0.00 | 56 | 1011.9 |
| 20260902013037 | 65 | 292 | 8.0 | 16.0 | 0.00 | 0.00 | 0.00 | 55 | 1011.9 |
| 20260902011609 | 67 | 265 | 9.0 | 20.0 | 0.00 | 0.00 | 0.00 | 53 | 1011.7 |
| 20260902010033 | 67 | 289 | 5.0 | 15.0 | 0.00 | 0.00 | 0.00 | 54 | 1011.6 |
| 20260902004538 | 66 | 310 | 4.0 | 15.0 | 0.00 | 0.00 | 0.00 | 61 | 1011.3 |
| 20260902001609 | 66 | 329 | 4.0 | 11.0 | 0.00 | 0.00 | 0.00 | 61 | 1011.2 |
| 20260902000037 | 66 | 334 | 6.0 | 12.0 | 0.00 | 0.00 | 0.00 | 62 | 1011.2 |
| 20260901234536 | 66 | 323 | 5.0 | 11.0 | 0.00 | 0.00 | 0.00 | 60 | 1011.4 |
| 20260901233038 | 67 | 348 | 5.0 | 10.0 | 0.00 | 0.00 | 0.00 | 60 | 1011.3 |
| 20260901230036 | 68 | 341 | 5.0 | 12.0 | 0.00 | 0.00 | 0.00 | 58 | 1011.3 |
| 20260901224538 | 70 | 343 | 7.0 | 16.0 | 0.00 | 0.00 | 0.00 | 57 | 1011.0 |
| 20260901221536 | 70 | 358 | 8.0 | 15.0 | 0.00 | 0.00 | 0.00 | 55 | 1010.9 |
| 20260901220036 | 70 | 21 | 5.0 | 11.0 | 0.00 | 0.00 | 0.00 | 57 | 1010.7 |
| 20260901214537 | 69 | 8 | 4.0 | 12.0 | 0.00 | 0.00 | 0.00 | 58 | 1010.8 |
| 20260901213108 | 68 | 22 | 5.0 | 11.0 | 0.00 | 0.00 | 0.00 | 61 | 1011.0 |
| 20260901211608 | 66 | 353 | 6.0 | 12.0 | 0.00 | 0.00 | 0.00 | 63 | 1011.1 |
| 20260901210035 | 67 | 353 | 8.0 | 16.0 | 0.00 | 0.00 | 0.00 | 61 | 1011.2 |